Simultaneous Nadir Overpasses (SNOs) Predictions

Prediction of SNOs between NPP and TERRA Satellite Orbit:

Table of predicted SNOs for the next 14.0 days since TLE Epoch: 7/21/2012
Index Date (NPP) Time (NPP) Lat,Lon (NPP) SZA (NPP ) Date (TERRA) Time (TERRA) Lat,Lon (TERRA) SZA (TERRA ) Distance(km) Time Diff (sec)
1 07/21/2012 05:26:20 67.70, 97.40 47.23 07/21/2012 05:25:08 67.78, 96.71 47.33 30.25 72
2 07/23/2012 20:01:55 68.22,-122.10 48.29 07/23/2012 20:02:35 68.23,-122.16 48.29 2.38 40
3 07/23/2012 20:52:37 -68.14, 45.33 131.79 07/23/2012 20:52:05 -68.11, 45.34 131.81 2.51 32
4 07/26/2012 11:28:17 -68.93,-174.57 130.40 07/26/2012 11:29:27 -68.83,-173.18 130.55 56.76 70
5 07/26/2012 12:18:50 68.22, -6.33 48.87 07/26/2012 12:19:03 68.22, -6.29 48.87 1.77 13
6 07/26/2012 13:09:31 -68.08, 161.17 131.27 07/26/2012 13:08:34 -68.05, 161.15 131.29 2.63 57
7 07/29/2012 03:44:59 -68.29, -57.96 130.45 07/29/2012 03:46:03 -68.32, -57.93 130.43 3.01 64
8 07/29/2012 04:35:43 68.17, 109.50 49.44 07/29/2012 04:35:31 68.14, 109.51 49.41 3.05 12
9 07/29/2012 05:26:18 -67.71, -82.60 131.03 07/29/2012 05:25:06 -67.76, -83.30 130.95 30.10 72
10 07/31/2012 20:01:53 -68.25, 57.86 129.83 07/31/2012 20:02:32 -68.24, 57.86 129.85 1.87 39
11 07/31/2012 20:52:37 68.13,-134.68 50.06 07/31/2012 20:51:59 68.11,-134.64 50.04 2.57 38
12 08/03/2012 11:28:13 68.74, 5.67 51.36 08/03/2012 11:29:24 68.63, 6.59 51.22 39.24 71
13 08/03/2012 12:18:47 -68.22, 173.66
